Location: ????????
(56.1167°N, 38.6333°E)
Time: 22:01:08
(UTC+00:00)

Cosmos 1346 Rocket - Pass Details

Date: 18 November 2025
Orbit: 480 x 491 km, 81.2° (Epoch: 06 December)

Event Time Altitude Azimuth Distance (km) Brightness Sun altitude
Rises 14:23:08 0° 355° (N) 2,593 6.1 -9.6°
Reaches altitude 10° 14:25:57 10° 18° (NNE) 1,705 5.0 -10.0°
Maximum altitude 14:28:18 16° 57° (ENE) 1,374 4.2 -10.3°
Enters shadow 14:29:01 15° 71° (ENE) 1,406 4.2 -10.4°
